Location: Hilton Head Island
(32.2163°N, 80.7526°W)
Time: 20:42:24
(UTC-04:00)

Vanguard 2 Rocket - Pass Details

Date: 24 February 2026
Orbit: 553 x 3286 km, 32.9° (Epoch: 10 March)

Event Time Altitude Azimuth Distance (km) Brightness Sun altitude
Rises 10:22:28 0° 239° (WSW) 6,580 11.2 37.6°
Reaches altitude 10° 10:26:28 10° 237° (WSW) 5,798 11.0 38.2°
Maximum altitude 10:45:45 73° 157° (SSE) 3,370 10.9 40.8°
Drops below altitude 10° 11:03:49 10° 77° (ENE) 5,492 11.2 43.0°
Sets 11:07:28 0° 76° (ENE) 6,234 11.3 43.4°
